Regional Weather Roundup
Issued by NWS

Home | Current Version | Previous Version | Graphics & Text | Print | Product List | Glossary On
Versions: 1 2 3 4 5 6 7 8 9 10 11 12 13 14 15 16 17 18 19 20 21 22 23 24 25 26 27 28 29 30 31 32 33 34 35 36 37 38 39 40 41 42 43 44 45 46 47 48 49 50
000
ASUS43 KLSX 270559
RWRMO

WEATHER SUMMARY FOR MISSOURI
NATIONAL WEATHER SERVICE SPRINGFIELD MO
1200 AM CST FRI FEB 27 2015

NOTE: "FAIR" INDICATES FEW OR NO CLOUDS BELOW 12,000 FEET WITH NO
       SIGNIFICANT WEATHER AND/OR OBSTRUCTIONS TO VISIBILITY.
       CURRENT SKY AND/OR WEATHER CONDITIONS ARE NOT AVAILABLE FOR
       CHILLICOTHE AND FARMINGTON.

MOZ001>031-035>038-043-044-053-054-270700-
...NORTHERN AND WESTERN MISSOURI...

CITY           SKY/WX    TMP DP  RH WIND       PRES   REMARKS
KANSAS CTY INT CLEAR      4  -3  73 N7        30.58R WCI  -8
6HR MIN TEMP:   4; 6HR MAX TEMP:  14;

KANSAS C DTWN  CLEAR      8  -3  61 N12       30.61R WCI  -7
6HR MIN TEMP:   8; 6HR MAX TEMP:  18;

LEE`S SUMMIT   CLEAR      7  -3  64 N12       30.57  WCI  -8
6HR MIN TEMP:   7; 6HR MAX TEMP:  17;

ST JOSEPH      CLEAR      2  -4  76 N6        30.62S WCI  -9
6HR MIN TEMP:   2; 6HR MAX TEMP:  13;

CHILLICOTHE      N/A      4  -4  69 CALM      30.61R
6HR MIN TEMP:   4; 6HR MAX TEMP:  13;

KIRKSVILLE     CLEAR     -1  -5  82 W3        30.55R
6HR MIN TEMP:  -1; 6HR MAX TEMP:  10;


$$
MOZ066>068-077>081-088>096-101>105-270700-
...SOUTHWEST MISSOURI...

CITY           SKY/WX    TMP DP  RH WIND       PRES   REMARKS
SPRINGFIELD    CLEAR     13   2  61 N12       30.48R WCI  -1
6HR MIN TEMP:  13; 6HR MAX TEMP:  22;

JOPLIN         PTCLDY    15   4  61 N12       30.53R WCI   2
6HR MIN TEMP:  15; 6HR MAX TEMP:  23;


$$
MOZ032>034-039>042-045>050-055>058-069>072-270700-
...CENTRAL MISSOURI...

CITY           SKY/WX    TMP DP  RH WIND       PRES   REMARKS
COLUMBIA       CLEAR      7  -1  70 N9        30.55R WCI  -7
6HR MIN TEMP:   7; 6HR MAX TEMP:  18;

JEFFERSON CITY CLEAR     10  -2  58 N7        30.58R WCI  -1
6HR MIN TEMP:  10; 6HR MAX TEMP:  20;

ROLLA          CLEAR      8  -1  66 N9        30.48R WCI  -5
6HR MIN TEMP:   8; 6HR MAX TEMP:  19;

SEDALIA        CLEAR      9   0  67 N9        30.57R WCI  -4
6HR MIN TEMP:   9; 6HR MAX TEMP:  17;

OSAGE BEACH    CLEAR     10   0  61 N3        30.52S

$$
MOZ051-052-059>065-270700-
...EAST CENTRAL MISSOURI...

CITY           SKY/WX    TMP DP  RH WIND       PRES   REMARKS
ST LOUIS INTL  PTCLDY     9  -2  61 N9        30.54R WCI  -4
6HR MIN TEMP:   9; 6HR MAX TEMP:  20;

SPIRIT OF STL  CLEAR      9  -2  61 N7        30.55R WCI  -2
6HR MIN TEMP:   9; 6HR MAX TEMP:  20;

ST CHARLES     CLEAR      7  -3  64 NW10      30.56R WCI  -8
6HR MIN TEMP:   7; 6HR MAX TEMP:  18;


$$
MOZ072>076-082>087-097>100-106>115-270700-
...SOUTH CENTRAL AND SOUTHEAST MISSOURI...

CITY           SKY/WX    TMP DP  RH WIND       PRES   REMARKS
CAPE GIRARDEAU CLOUDY    20   9  62 N16       30.49  WCI   6
6HR MIN TEMP:  20; 6HR MAX TEMP:  25; 6HR PCP: TRACE;

FARMINGTON     CLEAR     10   0  61 N9        30.50R WCI  -2
6HR MIN TEMP:  10; 6HR MAX TEMP:  19;

POPLAR BLUFF   CLEAR     21   6  52 N13       30.48R WCI   9
6HR MIN TEMP:  21; 6HR MAX TEMP:  27;

WEST PLAINS    CLEAR     14   3  61 N9        30.45R WCI   2
6HR MIN TEMP:  14; 6HR MAX TEMP:  20;


$$



USA.gov is the U.S. government's official web portal to all federal, state and local government web resources and services.